This is the latest recevied weather packets stored in our database for station/object NC4M. If no packets are shown the sender has not sent any weather packets the latest 10 day(s).
| Time | Temp. | Humidity | Pressure | Rain* | Wind** | Luminosity | Snow |
|---|---|---|---|---|---|---|---|
| 1777654474 | 15.56° C | 32% | 1019.5 hPa | 0 mm | - | 943 W/m² | - |
| 1777654171 | 15.56° C | 30% | 1019.7 hPa | 0 mm | - | 952 W/m² | - |
| 1777653869 | 15° C | 34% | 1019.8 hPa | 0 mm | - | 963 W/m² | - |
| 1777653565 | 15.56° C | 34% | 1019.6 hPa | 0 mm | - | 965 W/m² | - |
| 1777653261 | 15.56° C | 34% | 1019.6 hPa | 0 mm | - | 961 W/m² | - |
| 1777652958 | 15° C | 34% | 1019.7 hPa | 0 mm | - | 966 W/m² | - |
| 1777652655 | 15° C | 38% | 1019.6 hPa | 0 mm | - | 955 W/m² | - |
| 1777652352 | 15° C | 34% | 1019.5 hPa | 0 mm | - | 954 W/m² | - |
| 1777652049 | 15° C | 37% | 1019.5 hPa | 0 mm | - | 949 W/m² | - |
| 1777651745 | 15° C | 41% | 1019.7 hPa | 0 mm | - | 947 W/m² | - |
| 1777651442 | 14.44° C | 39% | 1019.5 hPa | 0 mm | - | 947 W/m² | - |
| 1777651139 | 13.89° C | 42% | 1019.6 hPa | 0 mm | - | 942 W/m² | - |
| 1777650836 | 13.89° C | 40% | 1019.7 hPa | 0 mm | - | 937 W/m² | - |
| 1777650533 | 13.33° C | 44% | 1019.6 hPa | 0 mm | - | 934 W/m² | - |
| 1777650230 | 13.89° C | 41% | 1019.6 hPa | 0 mm | - | 172 W/m² | - |
| 1777649927 | 13.33° C | 45% | 1019.5 hPa | 0 mm | - | 66 W/m² | - |
| 1777649625 | 13.33° C | 45% | 1019.5 hPa | 0 mm | - | 374 W/m² | - |
| 1777649320 | 13.33° C | 45% | 1019.4 hPa | 0 mm | - | 474 W/m² | - |
| 1777649018 | 12.78° C | 45% | 1019.5 hPa | 0 mm | - | 327 W/m² | - |
| 1777648715 | 12.78° C | 44% | 1019.5 hPa | 0 mm | - | 479 W/m² | - |
| 1777648411 | 12.22° C | 44% | 1019.5 hPa | 0 mm | - | 222 W/m² | - |
| 1777648108 | 12.78° C | 46% | 1019.5 hPa | 0 mm | - | 160 W/m² | - |
| 1777647804 | 12.78° C | 44% | 1019.5 hPa | 0 mm | - | 208 W/m² | - |
| 1777647500 | 12.22° C | 43% | 1019.6 hPa | 0 mm | - | 221 W/m² | - |
| 1777647198 | 12.22° C | 42% | 1019.6 hPa | 0 mm | - | 59 W/m² | - |
* Rain latest hour (hover to see other rain measurements)
** Current wind speed in m/s (hover to see current wind gust speed)